Change the Weather History Date:

Wednesday, August 13, 2014

  Actual Average Record
Temperature  
Mean Temperature 63 °F 69 °F  
Max Temperature 66 °F 79 °F 93 °F (2002)
Min Temperature 60 °F 59 °F 51 °F (1998)
Degree Days  
Heating Degree Days 2 1  
Month to date heating degree days 3 2  
Since 1 June heating degree days 81 112  
Since 1 July heating degree days 5 18  
Cooling Degree Days 0 4  
Month to date cooling degree days 46 64  
Year to date cooling degree days 270 294  
Since 1 June cooling degree days 270 285  
Growing Degree Days 12 (Base 50)    
Moisture  
Dew Point 61 °F    
Average Humidity 95    
Maximum Humidity 100    
Minimum Humidity 90    
Precipitation  
Precipitation 3.02 in 0.11 in 3.02 in (2014)
Month to date precipitation 4.22 1.47  
Year to date precipitation 29.62 24.34  
Sea Level Pressure  
Sea Level Pressure 29.92 in    
Wind  
Wind Speed 9 mph (ESE)    
Max Wind Speed 21 mph    
Max Gust Speed 29 mph    
Visibility 8 miles    
Events Rain , Thunderstorm    
T = Trace of Precipitation, MM = Missing Value Source: NWS Daily Summary

Daily Weather History Graph

Daily Weather History Graph

Search for Another Location

Airport or City:

Trip Planner

Search our weather history database for the weather conditions in past years. The results will help you decide how hot, cold, wet, or windy it might be!

Date:

Astronomy

Aug. 13, 2014 Rise Set
Actual Time 5:40 AM EDT 7:47 PM EDT
Civil Twilight 5:08 AM EDT 8:18 PM EDT
Nautical Twilight 4:29 AM EDT 8:57 PM EDT
Astronomical Twilight 3:45 AM EDT 9:40 PM EDT
Moon 9:19 PM EDT (8/13) 9:13 AM EDT (8/13)
Length of Visible Light 15h 10m
Length of Day
14h 07m
Waning Gibbous, 88% of the Moon is Illuminated
Aug 13
Waning Gibbous
Aug 17
Last Quarter
Aug 25
New
Sep 2
First Quarter
Sep 8
Full

Hourly Weather History & Observations

Time (EDT) Temp. Dew Point Humidity Pressure Visibility Wind Dir Wind Speed Gust Speed Precip Events Conditions
12:53 AM 64.9 °F 63.0 °F 93% 30.10 in 10.0 mi SE 8.1 mph - N/A   Overcast
1:53 AM 64.4 °F 62.6 °F 94% 30.08 in 10.0 mi SE 8.1 mph - N/A   Overcast
2:53 AM 64.0 °F 62.1 °F 93% 30.06 in 10.0 mi SE 6.9 mph - N/A   Overcast
3:53 AM 64.0 °F 62.1 °F 93% 30.06 in 10.0 mi SE 9.2 mph - N/A   Overcast
4:53 AM 63.0 °F 61.0 °F 93% 30.04 in 10.0 mi SE 10.4 mph - N/A   Overcast
5:53 AM 62.1 °F 60.1 °F 93% 30.03 in 10.0 mi SE 6.9 mph - N/A   Overcast
6:53 AM 62.1 °F 59.0 °F 90% 30.03 in 10.0 mi SE 6.9 mph - N/A   Overcast
8:53 AM 63.0 °F 60.1 °F 90% 30.02 in 10.0 mi ESE 6.9 mph - N/A   Overcast
9:53 AM 62.1 °F 60.1 °F 93% 30.01 in 10.0 mi SE 8.1 mph 17.3 mph 0.01 in Rain Light Rain
10:53 AM 62.6 °F 60.8 °F 94% 30.01 in 9.0 mi ESE 10.4 mph - N/A Rain Light Rain
11:53 AM 61.0 °F 59.0 °F 93% 30.00 in 9.0 mi ESE 12.7 mph 18.4 mph 0.01 in Rain Light Rain
12:53 PM 61.0 °F 59.0 °F 93% 29.99 in 10.0 mi ESE 5.8 mph - 0.01 in Rain Light Rain
1:37 PM 61.0 °F 60.1 °F 97% 29.98 in 10.0 mi ESE 11.5 mph - 0.00 in Rain Light Rain
1:53 PM 62.1 °F 60.1 °F 93% 29.97 in 9.0 mi SE 12.7 mph 18.4 mph 0.01 in Rain Light Rain
2:53 PM 62.1 °F 61.0 °F 96% 29.95 in 6.0 mi East 5.8 mph - 0.01 in Rain Light Rain
3:53 PM 62.6 °F 60.8 °F 94% 29.91 in 9.0 mi East 6.9 mph 17.3 mph N/A Rain Light Rain
4:53 PM 62.1 °F 60.1 °F 93% 29.89 in 10.0 mi East 9.2 mph - 0.04 in   Overcast
5:53 PM 62.1 °F 60.1 °F 93% 29.87 in 9.0 mi East 9.2 mph - 0.01 in Rain Light Rain
6:14 PM 62.1 °F 60.1 °F 93% 29.84 in 10.0 mi ENE 10.4 mph - 0.00 in Rain Light Rain
6:36 PM 61.0 °F 60.1 °F 97% 29.82 in 9.0 mi ENE 11.5 mph - 0.01 in Rain Light Rain
6:53 PM 61.0 °F 60.1 °F 97% 29.82 in 10.0 mi ENE 10.4 mph - 0.01 in   Overcast
7:53 PM 61.0 °F 59.0 °F 93% 29.78 in 4.0 mi ENE 12.7 mph - 0.07 in Rain Rain
8:53 PM 62.1 °F 60.1 °F 93% 29.77 in 2.5 mi East 10.4 mph - 0.19 in Rain Heavy Rain
9:09 PM 62.1 °F 61.0 °F 96% 29.75 in 1.8 mi East 11.5 mph 20.7 mph 0.20 in Rain Heavy Rain
9:53 PM 63.0 °F 61.0 °F 93% 29.71 in 8.0 mi ESE 16.1 mph 24.2 mph 0.36 in Rain Light Rain
10:53 PM 63.0 °F 60.1 °F 90% 29.73 in 10.0 mi Variable 4.6 mph 18.4 mph 0.04 in Rain Light Rain
11:01 PM 62.1 °F 61.0 °F 96% 29.74 in 7.0 mi WNW 6.9 mph - 0.01 in Rain , Thunderstorm Light Rain
11:37 PM 60.8 °F 60.8 °F 100% 29.75 in 0.8 mi NNW 12.7 mph - N/A Rain , Thunderstorm Heavy Thunderstorms and Rain